This is the latest recevied weather packets stored in our database for station/object KB3AWQ. If no packets are shown the sender has not sent any weather packets the latest 10 day(s).
| Time | Temp. | Humidity | Pressure | Rain* | Wind** | Luminosity | Snow |
|---|---|---|---|---|---|---|---|
| 1788113367 | 25.56° C | 78% | 1020.2 hPa | 0 mm | - | 144 W/m² | - |
| 1788113066 | 25.56° C | 76% | 1020.3 hPa | 0 mm | - | 117 W/m² | - |
| 1788112766 | 25.56° C | 76% | 1020.3 hPa | 0 mm | - | 160 W/m² | - |
| 1788112467 | 25.56° C | 75% | 1020.4 hPa | 0 mm | - | 187 W/m² | - |
| 1788112167 | 25.56° C | 75% | 1020.4 hPa | 0 mm | - | 255 W/m² | - |
| 1788111579 | 26.11° C | 73% | 1020.5 hPa | 0 mm | - | 520 W/m² | - |
| 1788111266 | 26.11° C | 73% | 1020.6 hPa | 0 mm | - | 444 W/m² | - |
| 1788110966 | 26.11° C | 71% | 1020.6 hPa | 0 mm | - | 570 W/m² | - |
| 1788110666 | 26.11° C | 75% | 1020.8 hPa | 0 mm | - | 982 W/m² | - |
| 1788110366 | 25.56° C | 75% | 1020.8 hPa | 0 mm | - | 1037 W/m² | - |
| 1788110067 | 25.56° C | 74% | 1020.7 hPa | 0 mm | - | 725 W/m² | - |
| 1788109767 | 25.56° C | 75% | 1020.7 hPa | 0 mm | - | 402 W/m² | - |
| 1788109466 | 25.56° C | 75% | 1020.7 hPa | 0 mm | - | 381 W/m² | - |
| 1788109166 | 25° C | 74% | 1020.8 hPa | 0 mm | - | 371 W/m² | - |
| 1788108867 | 25° C | 75% | 1020.8 hPa | 0 mm | - | 357 W/m² | - |
| 1788108566 | 25° C | 74% | 1020.9 hPa | 0 mm | - | 402 W/m² | - |
| 1788108267 | 25° C | 74% | 1020.9 hPa | 0 mm | - | 485 W/m² | - |
| 1788107966 | 24.44° C | 74% | 1021 hPa | 0 mm | - | 498 W/m² | - |
| 1788107667 | 23.89° C | 77% | 1021 hPa | 0 mm | - | 601 W/m² | - |
| 1788107366 | 23.33° C | 77% | 1021.1 hPa | 0 mm | - | 556 W/m² | - |
| 1788107074 | 23.33° C | 77% | 1021.1 hPa | 0 mm | - | 538 W/m² | - |
| 1788106766 | 23.33° C | 76% | 1021.1 hPa | 0 mm | - | 363 W/m² | - |
| 1788106466 | 23.89° C | 75% | 1021.1 hPa | 0 mm | - | 280 W/m² | - |
| 1788106166 | 23.89° C | 76% | 1021.2 hPa | 0 mm | - | 286 W/m² | - |
| 1788105866 | 23.89° C | 76% | 1021.3 hPa | 0 mm | - | 320 W/m² | - |
* Rain latest hour (hover to see other rain measurements)
** Current wind speed in m/s (hover to see current wind gust speed)